BREEZE-M R/B, 39376

Orbit data source: Space-Track

BREEZE-M R/B, 39376 is space debris in GEO originally from a launch on Mon, 11 Nov 2013 UTC launched from the Tyuratam Missile And Space Complex (TTMTR). Debris objects in space refer to the collection of defunct objects orbiting the Earth. Examples of debris include non-operational satellites, rocket bodies, and fragments generated from explosions, collisions, or faulty payload assembly.

Not visible in the next 10 days
Identifier
39376, 2013-062B
Orbit
GEO
Country
Flag of CISCIS
Related business
Manufacturer
Khrunichev
Mission
Spacecraft
Bus & Motor
BRIZ, Unknown motor
Mass
~1,600 kg wet, 1,600 kg dry
Launch date (UTC)
2013-11-11 (13 years ago)
Launch vehicle
Unknown
Launch site
Tyuratam Missile And Space Complex (TTMTR)
Object type
Payload
Rocket body
Debris
Shape & HBR
Cyl, 2.0 m
Radar Cross Section
15.135 m², Medium (>0.1 m² and < 1m²)

Expand to show TLE details & history
Last TLE update: 2 days ago

TLE from 2 days ago
0 BREEZE-M R/B
1 39376U 13062B   26171.03934240 -.00000128  00000-0  00000+0 0  9993
2 39376   9.4251  51.7267 0232450 116.1579 246.1892  1.04209043 47977
Epoch: 2026-06-20T00:56Z
TLE epoch observation values (Epoch: 2026-06-20T00:56:39.183Z)
Latitude
-0.00001°
Longitude
129.26224°
Altitude
35,117.503 km
Speed
3.084 km/s
True Right ascension
03h 26m 44s
True Declination
0° 00' 00"
Sunlit
Object was in daylight at epoch
Visualization orbit readout
Latitude
Unknown
Longitude
Unknown
Altitude
Unknown
Speed
Unknown
Apparent Right ascension
Unknown
Apparent Declination
Unknown
Sunlit
N/A
Visualization observer readout
Local Sidereal Time
23:08:02
Azimuth
Unknown
Elevation
Unknown
Doppler factor
Unknown
Orbital elements
Apogee altitude
35,674.091 km
Perigee altitude
33,763.495 km
Semi-major axis
41,096.93 km
Eccentricity
0.02325
Inclination
9.4251°
RAAN
51.7267°
Arg. of periapsis
116.1579°
True anomaly
243.78122°
Mean anomaly
246.1892°
Eccentric anomaly
244.98232°
Mean motion
0.26051 °/min
Orbital period
1,381.89 mins
BSTAR
0
Loading maneuver chart data...
Computing Atmospheric mass density...
Loading historical data...
Loading historical data...
Loading historical data...
Loading historical data...
Loading historical data...
Loading historical data...
Loading historical data...
Other satellites on launch #62 in the year 2013 (2013-11-11 UTC)

Documentation

Showing up to 5 results
|